Weather reports worldwide

Advertisment
Strasbourg, France (7190): temperature & dewpoint: 10.01.2018 08:00:00 - 16.01.2018 08:00:00 (CET)Strasbourg, France (7190): temperature 5cm: 10.01.2018 08:00:00 - 16.01.2018 08:00:00 (CET)Strasbourg, France (7190): temperature -20cm & temperature -100cm: 10.01.2018 08:00:00 - 16.01.2018 08:00:00 (CET)Strasbourg, France (7190): wind speed & gusts: 10.01.2018 08:00:00 - 16.01.2018 08:00:00 (CET)Strasbourg, France (7190): wind direction: 10.01.2018 08:00:00 - 16.01.2018 08:00:00 (CET)Strasbourg, France (7190): reduced air pressure: 10.01.2018 08:00:00 - 16.01.2018 08:00:00 (CET)Strasbourg, France (7190): visibility: 10.01.2018 08:00:00 - 16.01.2018 08:00:00 (CET)Strasbourg, France (7190): sunshine duration: 10.01.2018 08:00:00 - 16.01.2018 08:00:00 (CET)Strasbourg, France (7190): precipitation: 10.01.2018 08:00:00 - 16.01.2018 08:00:00 (CET)
Date & Time tt [°C] td [°C] tt 5cm [°C] tt -20cm [°C] tt -100cm [°C] ff [km/h] ff [kn] fx [km/h] fx [kn] dd ppp [hPa] vv [km] sd [min] rr [mm]
16.01.2018 08:00:00 8,5 5,2 6,9 4,1 7,4 31 17 61 33 SW 1000,0 9 0 0,2
16.01.2018 07:00:00 7,9 5,5 6,0 4,1 7,5 27 15 51 27 SW 1000,0 60 0 0,0
16.01.2018 06:00:00 7,1 5,2 5,7 4,0 7,5 24 13 40 21 S 999,6 10 0 0,4
16.01.2018 05:00:00 7,6 4,9 6,3 3,9 7,5 26 14 49 26 SSW 1001,0 50 0 0,0
16.01.2018 04:00:00 8,0 4,9 6,7 3,8 7,5 23 12 42 23 SSW 1001,8 60 0 0,0
16.01.2018 03:00:00 8,0 4,9 6,7 3,7 7,5 25 14 54 29 SSW 1002,4 42 0 0,2
16.01.2018 02:00:00 8,1 4,7 7,1 3,6 7,5 29 16 59 32 SSW 1002,9 60 0 0,0
16.01.2018 01:00:00 7,7 4,3 6,1 3,5 7,6 34 18 59 32 SSW 1003,1 10 0 0,0
16.01.2018 00:00:00 7,0 4,1 5,3 3,4 7,6 28 15 44 24 SSW 1003,6 10 0 0,0
15.01.2018 23:00:00 6,4 4,2 5,2 3,3 7,6 21 12 35 19 S 1004,1 47 0 0,2
15.01.2018 22:00:00 6,3 4,5 5,2 3,2 7,6 28 15 58 31 SSW 1004,7 20 0 0,0
15.01.2018 21:00:00 6,3 4,0 5,0 3,0 7,6 31 17 55 30 SSW 1004,8 10 0 0,2
15.01.2018 20:00:00 6,3 4,1 4,6 2,9 7,6 20 11 31 17 S 1005,7 16 0 0,8
15.01.2018 19:00:00 6,1 3,4 4,7 2,8 7,6 22 12 39 21 S 1007,0 7 0 0,4
15.01.2018 18:00:00 6,8 2,3 5,9 2,7 7,6 21 11 38 20 S 1008,0 10 0 0,0
15.01.2018 17:00:00 6,7 1,8 5,2 2,6 7,6 22 12 39 21 S 1009,2 10 0 0,0
15.01.2018 16:00:00 6,0 1,5 4,9 2,5 7,6 21 11 32 17 S 1010,3 21 0 0,0
15.01.2018 15:00:00 4,9 1,0 4,4 2,5 7,6 18 10 29 16 S 1012,3 10 0 0,0
15.01.2018 14:00:00 4,1 0,2 3,5 2,4 7,6 18 10 31 17 S 1014,1 10 0 0,0
15.01.2018 13:00:00 3,4 -0,4 2,5 2,4 7,7 18 10 30 16 S 1015,9 11 0 0,0
15.01.2018 12:00:00 2,5 -0,8 2,5 2,4 7,7 15 8 34 18 S 1017,2 10 0 0,0
15.01.2018 11:00:00 2,5 -0,8 1,2 2,5 7,7 9 5 26 14 SSW 1018,4 10 0 0,0
15.01.2018 10:00:00 1,4 -1,3 0,5 2,5 7,7 8 5 24 13 S 1019,2 8 0 0,0
15.01.2018 09:00:00 0,7 -1,4 -0,2 2,5 7,7 12 6 19 10 S 1019,6 8 0 0,0
15.01.2018 08:00:00 0,4 -1,5 -0,8 2,6 7,7 8 4 19 10 S 1019,9 7 0 0,0
15.01.2018 07:00:00 0,2 -1,7 -0,8 2,6 7,7 10 5 20 11 S 1020,2 7 0 0,0
15.01.2018 06:00:00 0,4 -1,4 -1,1 2,6 7,7 14 7 22 12 S 1020,4 7 0 0,0
15.01.2018 05:00:00 0,4 -1,2 -0,8 2,7 7,7 9 5 19 10 S 1020,8 6 0 0,0
15.01.2018 04:00:00 0,3 -1,1 -0,8 2,8 7,7 6 4 21 11 S 1021,3 5 0 0,0
15.01.2018 03:00:00 0,2 -1,2 -2,8 2,8 7,7 13 7 21 12 S 1021,7 6 0 0,0
15.01.2018 02:00:00 -1,5 -2,3 -4,4 2,9 7,7 5 3 12 7 SSE 1022,1 5 0 0,0
15.01.2018 01:00:00 -0,7 -2,0 -2,5 3,0 7,8 8 4 18 10 S 1022,4 6 0 0,0
15.01.2018 00:00:00 -0,6 -1,4 -2,3 3,1 7,8 10 6 18 10 S 1022,8 4,8 0 0,0
14.01.2018 23:00:00 -0,8 -1,4 -4,2 3,2 7,8 9 5 14 8 SSE 1022,8 4,4 0 0,0
14.01.2018 22:00:00 -1,4 -2,0 -3,9 3,3 7,8 5 3 8 5 S 1023,1 2,7 0 0,0
14.01.2018 21:00:00 -1,3 -2,0 -3,5 3,3 7,8 6 4 8 4 S 1022,9 2,6 0 0,0
14.01.2018 20:00:00 -0,9 -2,0 -2,6 3,3 7,8 4 2 13 7 SSW 1022,8 2,8 0 0,0
14.01.2018 19:00:00 0,2 -1,2 -1,8 3,4 7,8 11 6 13 7 SW 1022,6 4,6 0 0,0
14.01.2018 18:00:00 1,2 -0,1 -0,7 3,3 7,8 6 3 7 4 SW 1022,5 4,9 0 0,0
14.01.2018 17:00:00 1,8 -0,1 -0,1 3,1 7,8 4 2 8 4 S 1022,0 6 32 0,0
14.01.2018 16:00:00 4,8 0,9 7,5 3,0 7,8 0 0 7 4 N 1021,6 7 60 0,0
14.01.2018 15:00:00 4,8 0,6 7,6 2,9 7,8 4 2 9 5 ENE 1021,4 5 60 0,0
14.01.2018 14:00:00 4,4 0,4 6,5 2,9 7,8 2 1 7 4 NE 1021,3 6 60 0,0
14.01.2018 13:00:00 2,9 0,8 4,4 2,9 7,8 4 2 6 4 - 1021,8 5 60 0,0
14.01.2018 12:00:00 1,0 0,4 1,8 3,0 7,8 5 3 9 5 - 1022,4 3,0 50 0,0
14.01.2018 11:00:00 -0,3 -0,7 -1,0 3,1 7,8 3 2 5 3 NE 1022,8 0,2 33 0,0
14.01.2018 10:00:00 -1,6 -2,0 -3,9 3,2 7,8 4 2 5 3 NE 1022,7 4,9 22 0,0
14.01.2018 09:00:00 -3,1 -3,6 -6,7 3,3 7,8 4 2 6 3 W 1022,5 4,9 15 0,0
14.01.2018 08:00:00 -4,0 -4,7 -6,4 3,4 7,8 0 0 3 1 N 1022,3 0,2 0 0,0
14.01.2018 07:00:00 -4,1 -4,8 -6,4 3,5 7,8 0 0 2 1 N 1022,1 0,5 0 0,0
14.01.2018 06:00:00 -3,6 -4,3 -6,1 3,7 7,8 0 0 5 3 N 1021,7 1,7 0 0,0
14.01.2018 05:00:00 -2,5 -2,9 -5,9 3,8 7,8 4 2 6 3 W 1021,7 0,6 0 0,0
14.01.2018 04:00:00 -2,8 -3,3 -5,8 3,9 7,8 0 0 5 3 N 1021,6 1,2 0 0,0
14.01.2018 03:00:00 -2,9 -3,4 -5,6 4,1 7,8 0 0 4 2 N 1021,7 0,7 0 0,0
14.01.2018 02:00:00 -2,3 -2,7 -5,2 4,3 7,9 0 0 5 3 N 1021,5 2,9 0 0,0
14.01.2018 01:00:00 -2,0 -2,6 -4,5 4,4 7,8 4 2 8 4 WSW 1021,7 2,3 0 0,0
14.01.2018 00:00:00 -1,9 -2,5 -4,3 4,6 7,9 5 3 7 4 SW 1022,0 0,8 0 0,0
13.01.2018 23:00:00 -1,6 -2,2 -4,2 4,7 7,9 5 3 8 4 W 1021,9 2,9 0 0,0
13.01.2018 22:00:00 -1,2 -1,9 -3,9 4,9 7,9 5 3 7 4 WSW 1022,1 3,1 0 0,0
13.01.2018 21:00:00 -0,2 -1,0 -3,0 5,0 7,9 4 2 5 3 WSW 1022,0 2,8 0 0,0
13.01.2018 20:00:00 1,3 0,4 -1,0 5,1 7,9 3 2 4 2 NNW 1022,1 2,5 0 0,0
13.01.2018 19:00:00 2,2 0,7 -1,0 5,2 7,9 3 2 7 4 NNE 1022,2 6 0 0,0
13.01.2018 18:00:00 3,4 1,3 1,0 5,1 7,9 6 3 9 5 NNE 1022,3 10 0 0,0
13.01.2018 17:00:00 5,2 1,9 3,7 5,0 7,9 6 3 11 6 NE 1022,2 12 0 0,0
13.01.2018 16:00:00 5,8 2,1 6,1 5,0 7,9 8 4 15 8 NE 1022,3 13 0 0,0
13.01.2018 15:00:00 5,8 1,7 6,4 4,9 7,9 10 5 14 8 NE 1022,5 12 0 0,0
13.01.2018 14:00:00 5,6 2,2 5,8 4,8 7,9 8 5 14 8 NNE 1023,1 12 0 0,0
13.01.2018 13:00:00 4,9 1,7 5,4 4,7 7,9 8 4 13 7 NNE 1023,7 9 0 0,0
13.01.2018 12:00:00 4,6 1,8 4,7 4,6 7,9 5 3 14 8 NE 1024,3 10 0 0,0
13.01.2018 11:00:00 4,0 1,7 3,6 4,6 7,9 11 6 18 10 NE 1024,6 9 0 0,0
13.01.2018 10:00:00 3,3 1,3 2,1 4,6 7,9 10 5 14 8 NE 1024,9 8 0 0,0
13.01.2018 09:00:00 2,1 0,9 1,5 4,7 7,9 7 4 11 6 NNE 1024,7 6 0 0,0
13.01.2018 08:00:00 1,8 0,8 1,4 4,8 7,9 7 4 11 6 N 1025,1 5 0 0,0
13.01.2018 07:00:00 1,8 0,8 1,4 4,8 7,9 9 5 17 9 N 1025,6 5 0 0,0
13.01.2018 06:00:00 1,9 1,0 0,6 4,9 7,9 5 3 10 6 N 1025,5 6 0 0,0
13.01.2018 05:00:00 1,2 0,6 0,1 5,1 7,9 5 3 8 4 N 1025,8 6 0 0,0
13.01.2018 04:00:00 0,9 0,3 -1,8 5,3 7,9 4 2 9 5 NNW 1026,4 4,4 0 0,0
13.01.2018 03:00:00 0,5 -0,1 -2,1 5,5 7,9 5 3 10 6 N 1026,8 5 0 0,0
13.01.2018 02:00:00 0,8 0,2 -1,9 5,6 7,9 7 4 9 5 N 1026,6 3,9 0 0,0
13.01.2018 01:00:00 1,2 0,5 -1,6 5,7 7,9 7 4 11 6 N 1026,5 6 0 0,0
13.01.2018 00:00:00 1,9 0,9 -0,3 5,8 7,9 6 3 12 6 N 1026,7 7 0 0,0
12.01.2018 23:00:00 2,6 1,4 0,5 5,9 7,9 8 4 11 6 NNE 1026,6 5 0 0,0
12.01.2018 22:00:00 4,0 2,2 3,1 5,9 7,9 8 4 13 7 NNE 1026,4 9 0 0,0
12.01.2018 21:00:00 4,4 2,4 4,3 6,0 7,9 9 5 21 12 N 1026,5 10 0 0,0
12.01.2018 20:00:00 4,7 2,7 4,6 6,0 7,9 8 5 15 8 NNE 1026,3 9 0 0,0
12.01.2018 19:00:00 5,1 3,1 4,9 6,0 7,9 11 6 21 12 NNE 1026,4 9 0 0,0
12.01.2018 18:00:00 5,4 3,7 4,0 6,0 7,9 3 2 6 3 NNE 1026,0 7 0 0,0
12.01.2018 17:00:00 5,1 3,3 4,0 5,9 7,9 2 1 7 4 W 1025,6 8 9 0,0
12.01.2018 16:00:00 5,9 3,7 6,6 5,8 7,9 5 3 15 8 SSE 1025,2 8 35 0,0
12.01.2018 15:00:00 6,2 3,9 7,4 5,7 7,9 9 5 21 11 SE 1025,1 8 4 0,0
12.01.2018 14:00:00 6,8 4,5 7,4 5,6 7,9 14 8 21 11 N 1024,9 10 1 0,0
12.01.2018 13:00:00 6,1 4,3 6,5 5,6 7,9 15 8 23 12 NNW 1025,2 9 0 0,0
12.01.2018 12:00:00 5,5 3,7 6,0 5,6 7,9 11 6 18 10 N 1025,7 9 0 0,0
12.01.2018 11:00:00 5,1 3,6 5,1 5,6 7,9 12 7 24 13 NNE 1025,8 8 0 0,0
12.01.2018 10:00:00 4,7 3,7 4,5 5,6 7,9 11 6 19 10 NNE 1025,3 5 0 0,0
12.01.2018 09:00:00 4,5 3,6 3,9 5,6 7,9 9 5 23 12 N 1024,8 5 0 0,0
12.01.2018 08:00:00 4,6 3,7 3,9 5,6 7,9 15 8 24 13 N 1024,3 6 0 0,0
12.01.2018 07:00:00 5,0 4,1 3,9 5,6 7,9 18 10 24 13 N 1024,0 4,7 0 0,0
12.01.2018 06:00:00 5,1 4,2 4,3 5,7 7,9 11 6 18 10 N 1023,5 5 0 0,0
12.01.2018 05:00:00 5,4 4,5 4,7 5,7 7,9 11 6 16 9 N 1023,3 6 0 0,0
12.01.2018 04:00:00 5,3 4,7 4,3 5,7 7,9 9 5 15 8 NNW 1022,9 7 0 0,0
12.01.2018 03:00:00 5,2 4,8 4,0 5,8 7,9 6 3 8 4 N 1022,7 2,9 0 0,0
12.01.2018 02:00:00 5,2 4,6 4,1 5,8 7,9 0 0 8 4 N 1022,2 2,2 0 0,0
12.01.2018 01:00:00 5,4 4,8 4,3 5,8 7,9 5 3 8 5 NW 1021,9 6 0 0,0
12.01.2018 00:00:00 5,4 4,8 3,8 5,9 7,9 8 4 15 8 N 1021,5 5 0 0,0
11.01.2018 23:00:00 5,2 4,6 3,7 6,0 7,9 9 5 12 7 N 1021,1 8 0 0,0
11.01.2018 22:00:00 5,0 4,6 4,0 6,0 7,9 6 3 17 9 NNW 1020,8 3,3 0 0,0
11.01.2018 21:00:00 5,0 4,6 3,6 6,1 7,9 6 4 13 7 NNW 1020,4 1,4 0 0,0
11.01.2018 20:00:00 5,0 4,4 3,4 6,1 7,9 4 2 12 7 NNW 1019,8 0,5 0 0,0
11.01.2018 19:00:00 6,1 5,2 4,9 6,1 7,9 5 3 10 6 WNW 1019,2 5 0 0,0
11.01.2018 18:00:00 6,9 5,7 6,2 6,0 7,9 5 3 9 5 NNE 1018,7 6 0 0,0
11.01.2018 17:00:00 7,2 5,7 6,8 6,0 7,9 5 3 9 5 NE 1018,1 4,9 0 0,0
11.01.2018 16:00:00 7,8 5,8 7,9 5,9 7,9 6 3 9 5 ENE 1017,4 6 0 0,0
11.01.2018 15:00:00 7,6 5,6 8,0 5,8 8,0 4 2 9 5 NNW 1016,8 6 0 0,0
11.01.2018 14:00:00 7,0 5,5 7,5 5,6 8,0 4 2 10 5 NW 1016,4 6 0 0,0
11.01.2018 13:00:00 6,1 5,2 6,7 5,6 8,0 6 3 10 5 NNW 1016,3 3,9 0 0,0
11.01.2018 12:00:00 5,4 5,0 6,3 5,5 7,9 8 4 10 6 N 1016,2 1,9 0 0,0
11.01.2018 11:00:00 5,1 4,4 6,5 5,5 8,0 8 4 10 6 N 1016,1 1,2 28 0,0
11.01.2018 10:00:00 4,4 4,0 3,4 5,5 8,0 3 2 6 4 SSW 1015,7 2,6 1 0,0
11.01.2018 09:00:00 3,7 3,3 2,8 5,6 8,0 4 2 6 4 W 1015,1 1,6 0 0,0
11.01.2018 08:00:00 4,1 3,7 1,8 5,7 8,0 2 1 4 2 NNE 1014,4 0,6 0 0,0
11.01.2018 07:00:00 4,3 3,7 2,0 5,7 8,0 0 0 5 3 N 1013,6 4,6 0 0,0
11.01.2018 06:00:00 4,5 3,9 3,4 5,8 8,0 3 2 5 3 ESE 1013,4 3,7 0 0,0
11.01.2018 05:00:00 4,3 3,7 3,7 5,8 8,0 4 2 7 4 SE 1013,1 3,9 0 0,0
11.01.2018 04:00:00 4,9 4,2 4,3 5,8 8,0 4 2 8 4 WSW 1012,8 4,6 0 0,0
11.01.2018 03:00:00 4,8 4,1 3,9 5,8 8,0 0 0 4 2 N 1012,7 6 0 0,0
11.01.2018 02:00:00 4,9 4,0 4,1 5,9 8,0 2 1 8 4 SW 1012,4 7 0 0,0
11.01.2018 01:00:00 5,2 4,2 4,4 5,9 8,0 5 3 8 4 - 1012,4 10 0 0,0
11.01.2018 00:00:00 5,1 4,1 4,3 6,0 8,0 4 2 9 5 WSW 1012,5 10 0 0,0
10.01.2018 23:00:00 4,9 4,0 2,7 6,1 8,0 4 2 9 5 SSE 1012,7 11 0 0,0
10.01.2018 22:00:00 4,9 3,7 3,6 6,2 8,0 4 2 8 4 S 1012,6 10 0 0,0
10.01.2018 21:00:00 5,6 4,1 2,8 6,2 8,0 5 3 10 5 ENE 1012,7 10 0 0,0
10.01.2018 20:00:00 5,8 3,8 3,7 6,2 8,0 6 3 22 12 SE 1012,3 39 0 0,0
10.01.2018 19:00:00 7,4 4,7 6,4 6,2 8,0 13 7 29 16 SSW 1012,2 10 0 0,0
10.01.2018 18:00:00 7,6 4,2 7,1 6,2 8,0 14 8 26 14 S 1011,8 49 0 0,0
10.01.2018 17:00:00 7,8 3,8 7,3 6,1 8,0 14 8 30 16 S 1011,6 60 0 0,0
10.01.2018 16:00:00 8,1 3,9 7,3 6,0 8,0 17 9 40 22 S 1011,3 51 0 0,0
10.01.2018 15:00:00 8,3 4,3 7,7 5,9 8,0 24 13 37 20 S 1011,1 25 0 0,0
10.01.2018 14:00:00 8,2 4,8 8,6 5,7 8,0 15 8 24 13 S 1011,3 20 0 0,0
10.01.2018 13:00:00 8,3 4,1 8,5 5,6 8,0 15 8 23 12 S 1011,9 10 2 0,0
10.01.2018 12:00:00 9,0 4,2 9,1 5,5 8,0 9 5 17 9 S 1012,3 24 26 0,0
10.01.2018 11:00:00 7,6 4,9 7,4 5,5 8,1 5 3 14 8 SSE 1013,0 16 12 0,0
10.01.2018 10:00:00 6,5 4,0 4,4 5,5 8,0 10 5 15 8 S 1013,2 15 0 0,0
10.01.2018 09:00:00 4,9 3,4 3,4 5,6 8,1 2 1 9 5 W 1013,2 12 0 0,0
10.01.2018 08:00:00 5,2 3,0 3,4 5,6 8,0 4 2 11 6 - 1013,1 10 0 0,0

tt = temperature
td = dewpoint
tt 5cm = temperature 5cm
tt -20cm = temperature -20cm
tt -100cm = temperature -100cm
ff = wind speed
fx = gusts
dd = wind direction
ppp = reduced air pressure
vv = visibility
sd = sunshine duration
rr = precipitation

Next stations